Tracking 20036 objects as of 22-Nov-2019
Live streaming from Space Station
objects crossing your sky now

DMSP 5D-2 F6 DEB

Track DMSP 5D-2 F6 DEB now!
10-day predictions


NORAD ID: 40918
Int'l Code: 1982-118L
Perigee: 578.2 km
Apogee: 761.9 km
Inclination: 98.4 °
Period: 98.0 minutes
Semi major axis: 7041 km
RCS: Unknown
Launch date: December 21, 1982
Source: United States (US)
Launch site: AIR FORCE WESTERN TEST RANGE (AFWTR)

Note: This is SATELLITE DEBRIS
aabbcc
Your satellite tracking list
Your tracking list is empty




NASA's NSSDC Master Catalog

Two Line Element Set (TLE):
1 40918U 82118L   19325.12466160  .00002369  00000-0  36017-3 0  9998
2 40918  98.4379 213.6156 0130414 144.9903 215.9963 14.69415380204216
Source of the keplerian elements: AFSPC